Flag for Oman Weather past 2 weeks in Salalah, Oman

Now
82 °F

Pleasantly warm.


Feels Like: 80 °F
Forecast: 58 / 84 °F
Wind: 15 mph from North

Location: Salalah Airport

Current Time: Dec 28, 2014 at 5:43:39 PM

Latest Report: Dec 28, 2014 at 4:50 PM


Visibility: N/A

Pressure: 29.98 "Hg

Humidity: 20%

Dew point: 37 °F

Location of SalalahLocation

Historic Weather in Salalah — Graph

°F

Salalah temperature yesterday

Maximum temperature yesterday: 84 °F (at 2:50 PM)
Minimum temperature yesterday: 70 °F (at 3:50 AM)
Average temperature yesterday: 76 °F

Past Weeks' High & Low Weather Summary

 TemperatureHumidityPressure
High88 °F (Dec 25, 1:50 PM)69% (Dec 15, 12:50 AM)30.15 "Hg (Dec 15, 12:50 AM)
Low64 °F (Dec 24, 6:50 AM)17% (Dec 26, 1:50 PM)29.89 "Hg (Dec 22, 2:50 PM)
Average76 °F41%30.04 "Hg
* Reported Dec 13 3:50 PM — Dec 28 3:50 PM, Salalah, Weather by CustomWeather, © 2014

Note: Actual official high and low records may vary slightly from our data, if they occured in-between our weather recording intervals... More about our weather records

Advertising

Salalah weather history for previous 24 hours

 ConditionsComfort  
Time TempWeatherWind HumidityBarometerVisibility
3:50 PM
Dec 28
82 °FSunny.16 mph20%29.98 "Hg10 mi
2:50 PM82 °FSunny.15 mph21%29.98 "Hg10 mi
1:50 PM81 °FPassing clouds.16 mph24%30.01 "HgN/A
12:50 PM81 °FSunny.14 mph28%30.07 "Hg10 mi
11:50 AM79 °FSunny.15 mph30%30.09 "Hg10 mi
10:50 AM77 °FPassing clouds.17 mph30%30.12 "HgN/A
9:50 AM73 °FPassing clouds.20 mph33%30.12 "HgN/A
8:50 AM72 °FPassing clouds.16 mph36%30.12 "HgN/A
7:50 AM70 °FSunny.16 mph43%30.09 "Hg10 mi
6:50 AM68 °FClear.10 mph46%30.09 "Hg10 mi
5:50 AM70 °FClear.12 mph40%30.07 "Hg10 mi
4:50 AM68 °FClear.14 mph43%30.04 "Hg10 mi
2:50 AM72 °FClear.5 mph38%30.04 "Hg10 mi
1:50 AM72 °FClear.7 mph38%30.04 "Hg10 mi
12:50 AM72 °FClear.9 mph38%30.04 "Hg10 mi
11:50 PM
Dec 27
73 °FMild.5 mph36%30.04 "HgN/A
10:50 PM75 °FPassing clouds.7 mph34%30.04 "HgN/A
9:50 PM75 °FMild.9 mph34%30.04 "HgN/A
8:50 PM75 °FMild.1 mph44%30.04 "HgN/A
7:50 PM77 °FClear.1 mph51%30.04 "Hg10 mi
6:50 PM77 °FClear.5 mph51%30.01 "Hg10 mi
5:50 PM79 °FSunny.12 mph45%30.01 "Hg10 mi
Weather by CustomWeather, © 2014

See weather overviewHow to use our weather pages